#�ϑ�����,���ϕ���,���ϕ���,�ő啗��,�ő啗����������,�ő�u�ԕ���,�ő�u�ԕ�����������
#(�N����),(m/s)   ,(16����),(m/s)   ,(16����)        ,(m/s)       ,(16����)            
2015/2/1 0:01,1.7,13,1.7,16,3,11
2015/2/1 0:02,1.7,12,1.7,16,2.7,11
2015/2/1 0:03,1.8,12,1.8,16,2.5,11
2015/2/1 0:04,1.7,12,1.8,16,2.4,11
2015/2/1 0:05,1.7,12,1.7,16,2.2,15
2015/2/1 0:06,2,12,2,15,6.4,16
2015/2/1 0:07,2.2,13,2.2,13,6,16
2015/2/1 0:08,2.1,13,2.1,13,3.7,13
2015/2/1 0:09,2.1,13,2.1,13,3.8,16
2015/2/1 0:10,2,13,2.1,13,2.4,16
2015/2/1 0:11,1.9,14,2,13,0.8,2
2015/2/1 0:12,1.8,14,1.9,13,1.5,10
2015/2/1 0:13,1.9,14,1.9,13,3.9,10
2015/2/1 0:14,2,13,2,13,5.7,9
2015/2/1 0:15,2.1,13,2.1,13,4.7,9
2015/2/1 0:16,1.9,12,2.1,13,2.4,14
2015/2/1 0:17,1.7,12,1.8,13,2.9,13
2015/2/1 0:18,1.6,12,1.7,13,1.6,10
2015/2/1 0:19,1.5,11,1.5,13,2.6,10
2015/2/1 0:20,1.7,11,1.7,13,4.1,9
2015/2/1 0:21,2.1,11,2.1,13,5.4,9
2015/2/1 0:22,2.4,10,2.4,10,4.9,9
2015/2/1 0:23,2.4,10,2.4,10,4.2,9
2015/2/1 0:24,2.3,10,2.4,10,2.7,9
2015/2/1 0:25,2.2,10,2.3,10,2.6,9
2015/2/1 0:26,2.1,10,2.2,10,1.8,8
2015/2/1 0:27,2,9,2.1,10,1.3,9
2015/2/1 0:28,2,9,2.1,10,2.7,8
2015/2/1 0:29,2.1,9,2.1,10,4.1,7
2015/2/1 0:30,2.1,9,2.1,10,3.2,7
2015/2/1 0:31,1.9,9,2.1,10,4.1,8
2015/2/1 0:32,1.8,9,1.9,10,3.8,9
2015/2/1 0:33,1.6,9,1.8,10,2.1,11
2015/2/1 0:34,1.5,9,1.6,10,3,9
2015/2/1 0:35,1.6,9,1.6,10,3.8,9
2015/2/1 0:36,1.8,9,1.8,10,3.7,11
2015/2/1 0:37,1.9,9,1.9,9,2.6,10
2015/2/1 0:38,2,10,2,9,2.6,11
2015/2/1 0:39,1.9,10,2,9,2,10
2015/2/1 0:40,1.7,10,1.8,9,1.4,9
2015/2/1 0:41,1.5,10,1.7,9,1.4,10
2015/2/1 0:42,1.4,10,1.5,9,2.7,11
2015/2/1 0:43,1.5,10,1.5,9,2.2,12
2015/2/1 0:44,1.6,11,1.6,9,3.2,13
2015/2/1 0:45,1.6,11,1.6,9,3.6,14
2015/2/1 0:46,1.5,11,1.6,9,2.1,13
2015/2/1 0:47,1.4,11,1.5,9,2.1,9
2015/2/1 0:48,1.3,11,1.4,10,2.2,12
2015/2/1 0:49,1.4,11,1.4,10,3,12
2015/2/1 0:50,1.5,12,1.5,10,1.6,12
2015/2/1 0:51,1.4,12,1.5,11,1.6,14
2015/2/1 0:52,1.4,13,1.5,11,1.4,16
2015/2/1 0:53,1.3,13,1.4,11,1,6
2015/2/1 0:54,1.2,13,1.3,11,1.9,10
2015/2/1 0:55,1.1,12,1.2,11,2.2,10
2015/2/1 0:56,1.2,12,1.2,11,4.5,12
2015/2/1 0:57,1.4,12,1.4,11,5.8,9
2015/2/1 0:58,1.5,12,1.6,12,4.7,9
2015/2/1 0:59,1.4,12,1.5,12,1.3,9
2015/2/1 1:00,1.3,11,1.4,12,0.6,16
2015/2/1 1:01,1.3,11,1.3,12,1,8
2015/2/1 1:02,1.5,10,1.5,12,5.7,10
2015/2/1 1:03,1.7,10,1.7,10,3.1,10
2015/2/1 1:04,1.7,11,1.7,10,2.2,12
2015/2/1 1:05,1.8,11,1.8,11,3.9,13
2015/2/1 1:06,1.9,11,1.9,11,5.1,11
2015/2/1 1:07,1.9,11,2,11,4.5,11
2015/2/1 1:08,2,11,2,11,3.7,12
2015/2/1 1:09,2.2,11,2.2,11,4.9,9
2015/2/1 1:10,2.5,11,2.5,11,4.2,10
2015/2/1 1:11,2.7,11,2.7,11,3.2,10
2015/2/1 1:12,2.6,11,2.7,11,3.8,11
2015/2/1 1:13,2.7,11,2.7,11,4.8,11
2015/2/1 1:14,2.9,11,2.9,11,5.1,11
2015/2/1 1:15,3.1,11,3.1,11,7.4,9
2015/2/1 1:16,3,11,3,11,5,10
2015/2/1 1:17,3,11,3,11,6.1,11
2015/2/1 1:18,3,11,3,11,3.2,16
2015/2/1 1:19,2.9,11,3,11,3.8,12
2015/2/1 1:20,2.9,11,2.9,11,3.9,12
2015/2/1 1:21,3,12,3,11,4.4,12
2015/2/1 1:22,3,12,3,11,3.8,12
2015/2/1 1:23,2.9,12,3,11,3.5,12
2015/2/1 1:24,2.8,12,2.9,11,3.7,11
2015/2/1 1:25,2.5,12,2.8,11,2,13
2015/2/1 1:26,2.4,13,2.5,11,3,16
2015/2/1 1:27,2.2,13,2.4,11,2.7,15
2015/2/1 1:28,2.1,13,2.2,11,1.8,16
2015/2/1 1:29,1.9,13,2.1,11,2.1,14
2015/2/1 1:30,1.8,13,1.9,11,2.5,12
2015/2/1 1:31,1.7,13,1.8,12,2.5,13
2015/2/1 1:32,1.6,13,1.6,12,2.5,12
2015/2/1 1:33,1.7,12,1.7,12,4.2,11
2015/2/1 1:34,1.8,12,1.8,12,4.2,10
2015/2/1 1:35,1.8,12,1.8,12,2.2,12
2015/2/1 1:36,1.8,11,1.8,13,3,9
2015/2/1 1:37,1.9,11,1.9,13,4.4,10
2015/2/1 1:38,2.2,11,2.2,11,4.8,9
2015/2/1 1:39,2.3,11,2.3,11,3.1,11
2015/2/1 1:40,2.3,11,2.3,11,2.9,13
2015/2/1 1:41,2.4,11,2.4,11,3.7,15
2015/2/1 1:42,2.4,11,2.4,11,3.6,16
2015/2/1 1:43,2.2,12,2.4,11,2.7,13
2015/2/1 1:44,2.2,12,2.2,11,3.3,11
2015/2/1 1:45,2.3,12,2.3,11,3.2,11
2015/2/1 1:46,2.3,12,2.3,11,3.6,9
2015/2/1 1:47,2.3,12,2.4,11,5,9
2015/2/1 1:48,2.3,12,2.3,11,5.1,10
2015/2/1 1:49,2.4,12,2.4,11,4.3,12
2015/2/1 1:50,2.5,12,2.5,12,4.5,13
2015/2/1 1:51,2.6,12,2.6,12,3.9,11
2015/2/1 1:52,2.7,11,2.7,11,4.1,9
2015/2/1 1:53,2.7,11,2.7,11,4.2,10
2015/2/1 1:54,2.5,11,2.7,11,1.5,13
2015/2/1 1:55,2.4,11,2.5,11,4.2,16
2015/2/1 1:56,2.3,12,2.4,11,2.7,16
2015/2/1 1:57,2.3,12,2.3,11,3.8,9
2015/2/1 1:58,2.3,12,2.3,11,3.8,10
2015/2/1 1:59,2.2,12,2.3,11,3.7,11
2015/2/1 2:00,2.1,12,2.2,11,3.3,11
2015/2/1 2:01,2.1,12,2.1,11,3.7,13
2015/2/1 2:02,2,12,2.1,11,3.8,12
2015/2/1 2:03,2.1,12,2.1,11,3.9,9
2015/2/1 2:04,2.4,12,2.4,11,4.7,10
2015/2/1 2:05,2.4,11,2.5,11,4.3,11
2015/2/1 2:06,2.6,11,2.6,11,3.7,13
2015/2/1 2:07,2.7,12,2.7,12,4.3,13
2015/2/1 2:08,2.7,12,2.7,12,4.9,12
2015/2/1 2:09,2.7,12,2.8,12,4.4,11
2015/2/1 2:10,2.6,12,2.6,12,2.5,7
2015/2/1 2:11,2.6,12,2.7,12,3.9,13
2015/2/1 2:12,2.7,12,2.7,12,4.7,12
2015/2/1 2:13,2.8,12,2.8,12,4.9,12
2015/2/1 2:14,2.7,12,2.7,12,5.1,12
2015/2/1 2:15,2.6,12,2.6,12,4.5,13
2015/2/1 2:16,2.5,12,2.6,12,2.7,10
2015/2/1 2:17,2.4,12,2.5,12,3.1,6
2015/2/1 2:18,2.2,12,2.4,12,3.3,10
2015/2/1 2:19,2.2,11,2.2,12,3,11
2015/2/1 2:20,2.2,11,2.2,12,2.5,9
2015/2/1 2:21,2.1,11,2.2,12,4.4,12
2015/2/1 2:22,2.1,11,2.2,12,5.1,11
2015/2/1 2:23,2.2,11,2.2,12,4.8,10
2015/2/1 2:24,2.1,10,2.2,12,3.2,10
2015/2/1 2:25,2.1,10,2.1,12,2.9,11
2015/2/1 2:26,2.1,11,2.1,12,3.1,12
2015/2/1 2:27,2,11,2.1,12,3.1,10
2015/2/1 2:28,1.9,11,2,12,3.1,9
2015/2/1 2:29,2,11,2,11,5.1,10
2015/2/1 2:30,2.2,11,2.2,11,4.9,11
2015/2/1 2:31,2.3,11,2.3,11,3.1,12
2015/2/1 2:32,2,11,2.3,11,2.1,12
2015/2/1 2:33,1.8,11,2,11,1.5,11
2015/2/1 2:34,1.7,11,1.7,11,1.3,10
2015/2/1 2:35,1.6,11,1.7,11,2.7,14
2015/2/1 2:36,1.7,12,1.7,11,3.3,14
2015/2/1 2:37,1.7,12,1.7,11,1.9,15
2015/2/1 2:38,1.8,12,1.8,11,4.1,12
2015/2/1 2:39,1.7,12,1.8,11,3.3,12
2015/2/1 2:40,1.5,12,1.7,11,2.2,12
2015/2/1 2:41,1.6,12,1.6,11,3.5,10
2015/2/1 2:42,1.7,12,1.7,11,4.2,12
2015/2/1 2:43,1.9,12,1.9,12,4.2,12
2015/2/1 2:44,2.1,13,2.1,13,3.7,13
2015/2/1 2:45,2.3,13,2.3,12,4.7,13
2015/2/1 2:46,2.3,12,2.3,12,2.6,11
2015/2/1 2:47,2.4,12,2.4,12,3.5,12
2015/2/1 2:48,2.3,12,2.4,12,2.5,11
2015/2/1 2:49,2.1,12,2.3,12,1.9,14
2015/2/1 2:50,2.1,13,2.1,12,1.8,15
2015/2/1 2:51,2,13,2.1,12,1.6,12
2015/2/1 2:52,1.8,13,2,12,1,13
2015/2/1 2:53,1.6,13,1.8,12,2.5,13
2015/2/1 2:54,1.5,13,1.6,12,3.2,12
2015/2/1 2:55,1.4,13,1.4,12,3,9
2015/2/1 2:56,1.3,12,1.4,12,3.3,10
2015/2/1 2:57,1.3,12,1.3,12,3.1,11
2015/2/1 2:58,1.4,12,1.4,12,4.1,11
2015/2/1 2:59,1.5,12,1.5,12,3.1,11
2015/2/1 3:00,1.6,11,1.6,13,3.2,13
2015/2/1 3:01,1.6,11,1.6,13,2,15
2015/2/1 3:02,1.7,11,1.7,13,2.4,12
2015/2/1 3:03,1.9,11,1.9,11,2.9,12
2015/2/1 3:04,2,11,2,11,3,12
2015/2/1 3:05,1.9,12,2,11,2.7,13
2015/2/1 3:06,2,12,2,11,3.2,13
2015/2/1 3:07,2.1,12,2.1,12,3.1,13
2015/2/1 3:08,2.1,12,2.2,12,3.5,12
2015/2/1 3:09,2.1,12,2.1,12,3.3,12
2015/2/1 3:10,2.1,12,2.1,12,2.6,11
2015/2/1 3:11,2.2,12,2.2,12,3.8,10
2015/2/1 3:12,2.2,12,2.2,12,2.7,12
2015/2/1 3:13,2.2,12,2.2,12,2.5,10
2015/2/1 3:14,2.1,12,2.2,12,3,12
2015/2/1 3:15,2.1,12,2.1,12,2.2,14
2015/2/1 3:16,2.1,12,2.1,12,3.2,12
2015/2/1 3:17,2.2,12,2.2,12,5,11
2015/2/1 3:18,2.3,12,2.3,12,4.4,12
2015/2/1 3:19,2.2,12,2.3,12,2.7,13
2015/2/1 3:20,2.2,12,2.2,12,2,13
2015/2/1 3:21,2.1,12,2.2,12,2.2,13
2015/2/1 3:22,2.1,12,2.1,12,3.5,14
2015/2/1 3:23,2.3,12,2.3,12,4.8,12
2015/2/1 3:24,2.4,12,2.4,12,3.7,11
2015/2/1 3:25,2.4,12,2.4,12,5.1,11
2015/2/1 3:26,2.5,12,2.5,12,4.2,11
2015/2/1 3:27,2.4,12,2.5,12,4.2,12
2015/2/1 3:28,2.4,12,2.4,12,4.8,9
2015/2/1 3:29,2.5,12,2.5,12,4.2,12
2015/2/1 3:30,2.6,12,2.6,12,2.7,11
2015/2/1 3:31,2.7,12,2.7,12,4.8,13
2015/2/1 3:32,2.8,12,2.8,12,4.5,13
2015/2/1 3:33,2.8,12,2.8,12,3.8,13
2015/2/1 3:34,2.8,12,2.8,12,4.1,12
2015/2/1 3:35,2.8,12,2.8,12,3.8,11
2015/2/1 3:36,2.7,12,2.8,12,3.5,11
2015/2/1 3:37,2.7,12,2.7,12,3.8,12
2015/2/1 3:38,2.7,12,2.8,12,4.2,11
2015/2/1 3:39,2.6,12,2.7,12,3.6,11
2015/2/1 3:40,2.7,12,2.7,12,3.9,9
2015/2/1 3:41,2.6,12,2.7,12,3.2,8
2015/2/1 3:42,2.4,12,2.6,12,2.4,12
2015/2/1 3:43,2.3,12,2.4,12,2.9,15
2015/2/1 3:44,2.2,12,2.3,12,2.7,15
2015/2/1 3:45,2.1,12,2.2,12,2.5,15
2015/2/1 3:46,1.9,13,2.1,12,1.3,11
2015/2/1 3:47,1.8,13,1.9,12,1.9,13
2015/2/1 3:48,1.8,13,1.8,12,4.2,12
2015/2/1 3:49,1.9,13,1.9,12,3.7,12
2015/2/1 3:50,1.9,13,1.9,12,4.4,11
2015/2/1 3:51,1.9,13,1.9,12,3.7,12
2015/2/1 3:52,2,13,2,12,3.9,10
2015/2/1 3:53,2.1,13,2.1,12,3.2,12
2015/2/1 3:54,2.1,12,2.1,12,3,11
2015/2/1 3:55,2.2,12,2.2,12,4.3,12
2015/2/1 3:56,2.5,12,2.5,12,4.4,12
2015/2/1 3:57,2.7,12,2.7,12,4.7,13
2015/2/1 3:58,2.7,12,2.7,12,4.1,13
2015/2/1 3:59,2.6,12,2.6,12,2.9,12
2015/2/1 4:00,2.4,12,2.5,12,2.7,13
2015/2/1 4:01,2.5,13,2.5,12,5,15
2015/2/1 4:02,2.5,13,2.5,12,3.8,13
2015/2/1 4:03,2.5,13,2.5,12,3.3,10
2015/2/1 4:04,2.5,13,2.5,12,2.9,11
2015/2/1 4:05,2.3,13,2.4,12,2.1,15
2015/2/1 4:06,2.1,13,2.2,12,2.4,12
2015/2/1 4:07,2.1,13,2.1,12,3.6,11
2015/2/1 4:08,2.1,13,2.1,12,3.6,12
2015/2/1 4:09,2.1,13,2.1,12,3.7,14
2015/2/1 4:10,2.1,13,2.1,12,3.2,13
2015/2/1 4:11,2.1,12,2.2,13,3.5,12
2015/2/1 4:12,2.1,12,2.1,13,3.8,14
2015/2/1 4:13,2.1,13,2.1,13,3.1,13
2015/2/1 4:14,2.2,13,2.2,13,3.5,14
2015/2/1 4:15,2.4,13,2.4,13,6.8,16
2015/2/1 4:16,2.5,13,2.5,13,5.2,16
2015/2/1 4:17,2.5,13,2.5,13,4.9,15
2015/2/1 4:18,2.6,13,2.6,13,5.6,14
2015/2/1 4:19,2.7,13,2.7,13,4.8,14
2015/2/1 4:20,2.6,14,2.7,13,2.5,15
2015/2/1 4:21,2.6,14,2.6,13,6.3,14
2015/2/1 4:22,2.8,14,2.8,14,5.6,14
2015/2/1 4:23,2.8,14,2.8,14,4.4,14
2015/2/1 4:24,2.9,14,2.9,14,3.9,13
2015/2/1 4:25,2.7,14,2.9,14,2.7,16
2015/2/1 4:26,2.6,14,2.7,14,3.5,15
2015/2/1 4:27,2.6,14,2.6,14,2.9,14
2015/2/1 4:28,2.3,14,2.5,14,2.6,15
2015/2/1 4:29,2.1,14,2.3,14,1.5,11
2015/2/1 4:30,2.3,13,2.3,14,3.9,14
2015/2/1 4:31,2.4,14,2.4,14,5.6,15
2015/2/1 4:32,2.3,14,2.4,14,5.4,15
2015/2/1 4:33,2.2,13,2.3,14,3.7,15
2015/2/1 4:34,2.2,14,2.3,14,3.6,15
2015/2/1 4:35,2.2,14,2.2,14,3,15
2015/2/1 4:36,2.2,14,2.2,14,4.3,14
2015/2/1 4:37,2.3,14,2.3,14,3.6,12
2015/2/1 4:38,2.4,14,2.4,13,3.9,13
2015/2/1 4:39,2.5,14,2.5,14,3.6,15
2015/2/1 4:40,2.3,14,2.5,14,2.5,13
2015/2/1 4:41,2.4,14,2.4,14,7.5,15
2015/2/1 4:42,2.5,14,2.5,14,5.2,15
2015/2/1 4:43,2.5,14,2.5,14,3.9,16
2015/2/1 4:44,2.6,14,2.6,14,4.4,13
2015/2/1 4:45,2.8,14,2.8,14,4.2,12
2015/2/1 4:46,2.8,14,2.8,14,4.5,12
2015/2/1 4:47,2.6,14,2.8,14,3.1,12
2015/2/1 4:48,2.6,13,2.6,14,4.1,12
2015/2/1 4:49,2.7,13,2.7,14,6.3,13
2015/2/1 4:50,3,13,3,13,7.7,13
2015/2/1 4:51,2.8,13,3,13,3.5,13
2015/2/1 4:52,2.7,13,2.8,13,3.2,13
2015/2/1 4:53,2.8,13,2.8,13,6.8,15
2015/2/1 4:54,2.6,13,2.7,13,3.8,14
2015/2/1 4:55,2.5,13,2.6,13,3.3,15
2015/2/1 4:56,2.5,14,2.5,13,3.1,16
2015/2/1 4:57,2.6,14,2.6,13,3.5,16
2015/2/1 4:58,2.8,14,2.8,13,5.4,16
2015/2/1 4:59,2.8,14,2.9,13,5.2,11
2015/2/1 5:00,2.5,14,2.8,13,3.3,12
2015/2/1 5:01,2.6,14,2.6,14,4.2,13
2015/2/1 5:02,2.7,14,2.7,14,5.7,14
2015/2/1 5:03,2.8,14,2.8,14,6.4,15
2015/2/1 5:04,2.9,14,2.9,14,6.1,15
2015/2/1 5:05,3.2,14,3.2,14,7,16
2015/2/1 5:06,3.3,14,3.3,14,6.2,1
2015/2/1 5:07,3.3,14,3.3,14,3.8,16
2015/2/1 5:08,3.2,14,3.3,14,4.4,16
2015/2/1 5:09,3.3,15,3.3,14,7.2,14
2015/2/1 5:10,3.5,15,3.5,15,5.1,16
2015/2/1 5:11,3.3,15,3.5,15,3.2,1
2015/2/1 5:12,3.2,16,3.3,15,3.3,15
2015/2/1 5:13,3.1,16,3.2,15,4.7,16
2015/2/1 5:14,3.2,16,3.2,15,6.2,16
2015/2/1 5:15,3,16,3.2,15,5.7,2
2015/2/1 5:16,2.9,16,3,15,5.4,1
2015/2/1 5:17,2.8,16,2.9,15,3.1,2
2015/2/1 5:18,2.7,16,2.9,15,2.5,1
2015/2/1 5:19,2.6,16,2.7,15,3.2,15
2015/2/1 5:20,2.5,16,2.6,15,5.5,1
2015/2/1 5:21,2.6,16,2.6,15,4.4,3
2015/2/1 5:22,2.9,16,2.9,16,9.9,15
2015/2/1 5:23,3.1,16,3.1,16,8.1,15
2015/2/1 5:24,3.3,16,3.3,16,8.6,1
2015/2/1 5:25,3.6,16,3.6,16,8.6,14
2015/2/1 5:26,3.8,16,3.8,16,8.9,15
2015/2/1 5:27,4.1,16,4.1,16,7.7,15
2015/2/1 5:28,4.2,16,4.2,16,4.5,16
2015/2/1 5:29,4.3,16,4.3,16,7.1,16
2015/2/1 5:30,4.2,16,4.3,16,5.6,15
2015/2/1 5:31,4.3,16,4.3,16,4.1,15
2015/2/1 5:32,3.9,16,4.2,16,3.7,16
2015/2/1 5:33,3.9,15,3.9,16,7.6,14
2015/2/1 5:34,3.7,15,3.8,16,7.2,15
2015/2/1 5:35,3.7,15,3.8,16,9.7,15
2015/2/1 5:36,3.7,15,3.7,16,7.7,15
2015/2/1 5:37,3.6,15,3.7,16,7.2,15
2015/2/1 5:38,3.7,15,3.7,16,4.7,14
2015/2/1 5:39,3.6,15,3.7,16,5.2,11
2015/2/1 5:40,3.6,15,3.6,16,6,15
2015/2/1 5:41,3.7,15,3.7,16,5,16
2015/2/1 5:42,3.8,15,3.8,16,5.1,14
2015/2/1 5:43,3.5,15,3.8,15,3.3,1
2015/2/1 5:44,3.3,15,3.5,15,2.2,15
2015/2/1 5:45,3,15,3.3,15,3.5,15
2015/2/1 5:46,2.7,15,3,15,2.1,16
2015/2/1 5:47,2.3,15,2.6,15,3.2,14
2015/2/1 5:48,2.3,15,2.3,15,3.5,16
2015/2/1 5:49,2.3,15,2.3,15,5,1
2015/2/1 5:50,2.5,16,2.5,15,5.5,15
2015/2/1 5:51,2.4,16,2.5,15,5.8,15
2015/2/1 5:52,2.7,16,2.7,15,11.5,16
2015/2/1 5:53,3.3,15,3.3,15,10.6,16
2015/2/1 5:54,3.6,15,3.6,15,8.5,15
2015/2/1 5:55,3.7,16,3.7,16,6.5,15
2015/2/1 5:56,3.8,15,3.8,15,4.9,16
2015/2/1 5:57,4,16,4,16,6.5,1
2015/2/1 5:58,4.4,16,4.4,16,8.3,16
2015/2/1 5:59,4.6,15,4.6,15,10,15
2015/2/1 6:00,4.8,15,4.8,15,14,16
2015/2/1 6:01,4.9,15,4.9,15,6.7,16
2015/2/1 6:02,4.8,15,5.1,15,9.7,15
2015/2/1 6:03,4.4,15,4.8,15,5.7,15
2015/2/1 6:04,4.3,15,4.4,15,8.5,16
2015/2/1 6:05,4.5,16,4.5,15,9.3,15
2015/2/1 6:06,4.9,15,4.9,15,13.8,14
2015/2/1 6:07,5,15,5.1,15,7.1,16
2015/2/1 6:08,4.9,15,5,15,6.3,16
2015/2/1 6:09,4.8,15,4.8,15,7.8,15
2015/2/1 6:10,4.6,15,4.9,15,8.6,16
2015/2/1 6:11,4.5,15,4.6,15,5.8,14
2015/2/1 6:12,4.3,15,4.5,15,6.2,14
2015/2/1 6:13,4.4,15,4.4,15,5.8,14
2015/2/1 6:14,4.4,15,4.4,15,6.2,15
2015/2/1 6:15,4.3,15,4.4,15,7,1
2015/2/1 6:16,4,15,4.2,15,6.4,15
2015/2/1 6:17,3.7,15,3.9,15,4.5,16
2015/2/1 6:18,3.6,15,3.7,15,3.7,13
2015/2/1 6:19,3.3,15,3.6,15,6.1,16
2015/2/1 6:20,3.3,15,3.3,15,7.9,15
2015/2/1 6:21,3.3,15,3.3,15,5.5,16
2015/2/1 6:22,3.7,15,3.7,15,12.5,15
2015/2/1 6:23,4.2,15,4.2,15,11.4,15
2015/2/1 6:24,4.5,15,4.5,15,9.8,16
2015/2/1 6:25,4.5,15,4.5,15,9.9,16
2015/2/1 6:26,4.5,16,4.6,15,8.1,15
2015/2/1 6:27,4.6,15,4.6,15,5.7,15
2015/2/1 6:28,4.7,16,4.7,16,5.6,16
2015/2/1 6:29,5.1,16,5.1,16,10.3,1
2015/2/1 6:30,5.2,16,5.2,16,6.7,16
2015/2/1 6:31,5.5,16,5.5,16,10.3,1
2015/2/1 6:32,5.3,16,5.5,16,8.9,15
2015/2/1 6:33,4.9,16,5.2,16,8.2,15
2015/2/1 6:34,4.5,16,4.8,16,5.4,15
2015/2/1 6:35,4.5,15,4.5,16,7.6,15
2015/2/1 6:36,4.3,15,4.5,16,4.7,1
2015/2/1 6:37,4.4,15,4.5,16,7.4,15
2015/2/1 6:38,4.5,16,4.5,16,9,1
2015/2/1 6:39,4.4,16,4.5,16,8.7,16
2015/2/1 6:40,4.1,16,4.4,16,6.4,15
2015/2/1 6:41,3.7,16,4,16,3.3,14
2015/2/1 6:42,3.3,16,3.6,16,5.4,1
2015/2/1 6:43,3.4,16,3.4,16,7,16
2015/2/1 6:44,3.7,16,3.7,16,11.7,15
2015/2/1 6:45,4.1,16,4.1,15,14.5,16
2015/2/1 6:46,4.5,16,4.5,15,9.5,16
2015/2/1 6:47,4.8,16,4.8,16,9.2,15
2015/2/1 6:48,4.8,16,4.9,16,7.8,15
2015/2/1 6:49,5,16,5,16,12.4,16
2015/2/1 6:50,5.4,16,5.4,16,12.2,15
2015/2/1 6:51,6,16,6,16,14.8,15
2015/2/1 6:52,6.6,16,6.6,16,12.6,15
2015/2/1 6:53,6.7,16,6.7,16,9.4,16
2015/2/1 6:54,6.8,16,6.8,16,12.6,16
2015/2/1 6:55,6.7,16,6.9,16,12.3,16
2015/2/1 6:56,6.5,16,6.7,16,11.5,16
2015/2/1 6:57,6.7,16,6.7,16,11.7,16
2015/2/1 6:58,6.8,16,6.8,16,9.9,15
2015/2/1 6:59,6.7,16,6.9,16,8.2,15
2015/2/1 7:00,6.7,16,6.7,16,14,16
2015/2/1 7:01,6.6,16,6.8,16,11.4,1
2015/2/1 7:02,6.4,16,6.6,16,11,16
2015/2/1 7:03,6.5,16,6.5,16,11.9,15
2015/2/1 7:04,6.3,16,6.4,16,11.5,15
2015/2/1 7:05,6.5,16,6.5,16,13.6,15
2015/2/1 7:06,6.7,16,6.7,16,10.2,14
2015/2/1 7:07,6.8,16,6.8,16,14.8,16
2015/2/1 7:08,6.9,16,6.9,16,13.5,15
2015/2/1 7:09,7.2,16,7.2,16,13.6,15
2015/2/1 7:10,7.2,16,7.3,16,12.5,15
2015/2/1 7:11,7.3,16,7.3,16,9.8,15
2015/2/1 7:12,7.2,16,7.3,16,10.3,16
2015/2/1 7:13,7.2,16,7.2,16,10.1,15
2015/2/1 7:14,7.4,16,7.4,16,11,16
2015/2/1 7:15,7,16,7.4,16,12.2,16
2015/2/1 7:16,7,15,7,16,12.6,15
2015/2/1 7:17,6.8,15,7,16,13.4,16
2015/2/1 7:18,6.8,15,7,16,12.8,15
2015/2/1 7:19,6.4,16,6.8,16,6,15
2015/2/1 7:20,6.1,16,6.3,16,7.2,16
2015/2/1 7:21,5.8,16,6.1,16,9.8,16
2015/2/1 7:22,5.6,16,5.8,16,8.7,15
2015/2/1 7:23,5.6,16,5.6,16,8.4,16
2015/2/1 7:24,5.5,16,5.6,16,9.1,1
2015/2/1 7:25,5.5,16,5.5,15,8.7,16
2015/2/1 7:26,5.5,16,5.6,15,9.2,15
2015/2/1 7:27,5.2,16,5.4,16,7.1,15
2015/2/1 7:28,5.2,16,5.3,16,15.4,15
2015/2/1 7:29,5.3,16,5.3,16,10,16
2015/2/1 7:30,5.3,16,5.4,16,9.3,1
2015/2/1 7:31,5.4,16,5.4,16,8.6,16
2015/2/1 7:32,5.6,16,5.6,16,8.5,16
2015/2/1 7:33,5.7,15,5.7,16,11.4,15
2015/2/1 7:34,5.6,16,5.7,16,9,1
2015/2/1 7:35,5.4,16,5.6,16,7,16
2015/2/1 7:36,5.4,16,5.4,16,10.1,15
2015/2/1 7:37,5.4,16,5.4,16,9.5,15
2015/2/1 7:38,5.4,16,5.4,16,12.4,14
2015/2/1 7:39,5.4,15,5.5,16,12.6,15
2015/2/1 7:40,5.5,15,5.5,16,9.8,16
2015/2/1 7:41,5.8,15,5.8,15,16.1,16
2015/2/1 7:42,6,15,6,15,10.6,16
2015/2/1 7:43,5.8,15,5.9,15,8.3,15
2015/2/1 7:44,5.9,15,6,15,10.6,15
2015/2/1 7:45,5.8,15,5.9,15,8.4,15
2015/2/1 7:46,5.9,15,5.9,15,10.1,1
2015/2/1 7:47,5.8,15,6,15,7.4,16
2015/2/1 7:48,5.7,16,5.9,15,8.3,16
2015/2/1 7:49,5.6,16,5.7,15,7.6,15
2015/2/1 7:50,5.4,16,5.6,15,6.1,16
2015/2/1 7:51,5,16,5.4,15,8.2,16
2015/2/1 7:52,4.6,16,4.9,15,5.8,16
2015/2/1 7:53,4.6,16,4.7,15,9.4,14
2015/2/1 7:54,4.6,16,4.7,15,10.3,15
2015/2/1 7:55,4.9,16,4.9,15,10.6,15
2015/2/1 7:56,4.8,16,5,15,11,16
2015/2/1 7:57,5,16,5,15,8.9,16
2015/2/1 7:58,5.1,16,5.1,16,12.2,15
2015/2/1 7:59,5,16,5.1,16,4.7,15
2015/2/1 8:00,5.3,15,5.3,16,14,16
2015/2/1 8:01,5.3,15,5.3,15,7.4,15
2015/2/1 8:02,5.5,15,5.5,15,7.4,16
2015/2/1 8:03,5.4,15,5.5,15,7.7,16
2015/2/1 8:04,5.3,15,5.4,15,7.7,15
2015/2/1 8:05,5,15,5.2,15,4.1,14
2015/2/1 8:06,4.8,15,4.9,15,6.3,15
2015/2/1 8:07,4.6,15,4.8,15,5.8,16
2015/2/1 8:08,4.3,15,4.6,15,7.9,15
2015/2/1 8:09,4.5,15,4.5,15,7.7,15
2015/2/1 8:10,4.1,15,4.5,15,6.7,1
2015/2/1 8:11,3.8,15,4,15,3.7,15
2015/2/1 8:12,3.6,15,3.8,15,6,15
2015/2/1 8:13,3.6,15,3.6,15,8.1,16
2015/2/1 8:14,3.5,15,3.6,15,9.3,16
2015/2/1 8:15,4,15,4,15,15.4,15
2015/2/1 8:16,4.3,15,4.3,15,10.9,15
2015/2/1 8:17,4.5,15,4.5,15,8.5,15
2015/2/1 8:18,4.8,15,4.8,15,12.6,15
2015/2/1 8:19,5,15,5,15,9.8,1
2015/2/1 8:20,5.3,15,5.3,15,7.6,15
2015/2/1 8:21,5.6,16,5.6,16,8.2,1
2015/2/1 8:22,5.5,16,5.6,16,5.7,15
2015/2/1 8:23,5.6,15,5.6,16,7.7,15
2015/2/1 8:24,5.6,15,5.7,15,10,15
2015/2/1 8:25,5.2,15,5.7,15,6.5,15
2015/2/1 8:26,4.9,15,5.1,15,5.1,15
2015/2/1 8:27,4.7,15,4.9,15,7.1,16
2015/2/1 8:28,4.2,15,4.7,15,3.3,12
2015/2/1 8:29,3.9,15,4.1,15,9.8,15
2015/2/1 8:30,3.7,15,4,15,6.7,16
2015/2/1 8:31,3.4,14,3.7,15,2.7,2
2015/2/1 8:32,3.2,15,3.3,15,2.6,16
2015/2/1 8:33,3,15,3.3,15,4.7,15
2015/2/1 8:34,2.8,15,3.1,15,5.4,16
2015/2/1 8:35,2.7,15,2.8,15,4.8,15
2015/2/1 8:36,2.6,15,2.7,15,4.9,15
2015/2/1 8:37,2.4,15,2.6,15,5.7,1
2015/2/1 8:38,2.4,15,2.4,15,3.2,15
2015/2/1 8:39,2.3,15,2.4,15,7.4,13
2015/2/1 8:40,2.6,15,2.6,15,9.7,15
2015/2/1 8:41,3.1,15,3.1,15,10,15
2015/2/1 8:42,3.6,15,3.6,15,10.8,15
2015/2/1 8:43,3.9,15,3.9,15,8.3,15
2015/2/1 8:44,4.3,15,4.3,15,10.7,14
2015/2/1 8:45,4.4,15,4.4,15,6.4,14
2015/2/1 8:46,4.4,15,4.5,15,5.4,16
2015/2/1 8:47,4.5,15,4.5,15,5.4,15
2015/2/1 8:48,4.7,15,4.7,15,6.8,14
2015/2/1 8:49,4.9,15,4.9,15,9.3,15
2015/2/1 8:50,4.7,15,4.9,15,6.7,16
2015/2/1 8:51,4.5,15,4.7,15,7,16
2015/2/1 8:52,4.2,15,4.5,15,5.7,15
2015/2/1 8:53,4.1,15,4.2,15,7,1
2015/2/1 8:54,3.7,15,4.1,15,6.4,16
2015/2/1 8:55,3.7,15,3.7,15,4.8,16
2015/2/1 8:56,3.7,15,3.7,15,7.5,16
2015/2/1 8:57,3.8,15,3.9,15,6.3,15
2015/2/1 8:58,3.7,15,3.9,15,6.5,16
2015/2/1 8:59,3.5,15,3.7,15,5.4,15
2015/2/1 9:00,3.3,16,3.5,15,3.8,16
2015/2/1 9:01,3.1,16,3.2,15,2.9,15
2015/2/1 9:02,3,15,3.1,15,3.9,14
2015/2/1 9:03,2.8,15,3,15,6,14
2015/2/1 9:04,2.8,15,2.8,15,4.7,15
2015/2/1 9:05,3.1,15,3.1,15,9.1,15
2015/2/1 9:06,3.5,15,3.5,15,9.7,14
2015/2/1 9:07,3.4,15,3.5,15,6.3,16
2015/2/1 9:08,3.5,15,3.6,15,7.6,15
2015/2/1 9:09,3.3,15,3.5,15,3,14
2015/2/1 9:10,3.4,15,3.4,15,4.7,14
2015/2/1 9:11,3.7,14,3.7,14,7.5,10
2015/2/1 9:12,3.7,14,3.7,14,7.5,9
2015/2/1 9:13,3.9,14,3.9,14,5.7,15
2015/2/1 9:14,3.8,14,3.9,14,6.7,14
2015/2/1 9:15,3.6,14,3.8,14,7,12
2015/2/1 9:16,3.4,14,3.6,14,5.8,14
2015/2/1 9:17,3.3,13,3.3,14,4.7,13
2015/2/1 9:18,3.4,13,3.4,14,9.9,15
2015/2/1 9:19,3.8,14,3.8,14,8.1,16
2015/2/1 9:20,3.7,14,3.8,14,5.6,1
2015/2/1 9:21,3.5,14,3.7,14,5.6,16
2015/2/1 9:22,3.6,14,3.6,14,5.1,16
2015/2/1 9:23,3.5,14,3.6,14,7.4,16
2015/2/1 9:24,3.6,14,3.6,14,7.7,13
2015/2/1 9:25,3.5,14,3.6,14,6.3,14
2015/2/1 9:26,3.7,15,3.7,14,9,15
2015/2/1 9:27,3.9,15,3.9,15,9.5,16
2015/2/1 9:28,4.1,15,4.1,15,10.9,14
2015/2/1 9:29,4.1,15,4.1,15,10.6,15
2015/2/1 9:30,4.2,15,4.2,15,6.3,1
2015/2/1 9:31,4.5,15,4.5,15,9.9,16
2015/2/1 9:32,4.6,15,4.6,15,7.4,13
2015/2/1 9:33,4.8,14,4.8,14,7.7,11
2015/2/1 9:34,4.9,14,4.9,14,9.3,9
2015/2/1 9:35,5,14,5,14,8.2,10
2015/2/1 9:36,4.6,13,4.9,14,4.8,9
2015/2/1 9:37,4.3,13,4.5,14,4.8,15
2015/2/1 9:38,3.9,13,4.3,14,2.4,7
2015/2/1 9:39,3.4,12,3.8,14,2.9,14
2015/2/1 9:40,3.3,12,3.4,14,4.3,9
2015/2/1 9:41,3,11,3.3,14,3.1,10
2015/2/1 9:42,2.8,11,3,14,3.2,10
2015/2/1 9:43,2.4,11,2.7,14,5.4,13
2015/2/1 9:44,2.1,11,2.4,14,3.5,13
2015/2/1 9:45,1.9,12,2.1,14,2.5,12
2015/2/1 9:46,1.9,12,1.9,13,3.3,13
2015/2/1 9:47,1.8,11,1.9,13,2.6,10
2015/2/1 9:48,1.9,12,1.9,13,5.4,1
2015/2/1 9:49,2,12,2,12,4.7,2
2015/2/1 9:50,2,12,2,12,3.7,15
2015/2/1 9:51,2,13,2,11,4.7,14
2015/2/1 9:52,2.1,13,2.1,11,5.8,15
2015/2/1 9:53,2.4,14,2.4,11,7.2,1
2015/2/1 9:54,2.3,14,2.4,14,4.2,2
2015/2/1 9:55,2.4,15,2.4,14,4.4,2
2015/2/1 9:56,2.3,16,2.4,14,3.9,1
2015/2/1 9:57,2.5,16,2.5,15,5.6,10
2015/2/1 9:58,2.4,15,2.5,15,3,10
2015/2/1 9:59,2.4,15,2.4,15,2.6,11
2015/2/1 10:00,2.3,15,2.3,15,1.8,14
2015/2/1 10:01,2.2,14,2.3,15,2,9
2015/2/1 10:02,2,12,2.1,15,3,9
2015/2/1 10:03,1.7,11,1.9,15,2.1,10
2015/2/1 10:04,1.9,11,1.9,15,4.4,10
2015/2/1 10:05,1.8,11,1.9,15,3.8,9
2015/2/1 10:06,1.8,10,1.8,15,2.5,6
2015/2/1 10:07,1.8,10,1.8,16,7.1,8
2015/2/1 10:08,2,10,2,15,5.4,9
2015/2/1 10:09,2.2,9,2.2,15,6.1,8
2015/2/1 10:10,2.4,9,2.4,9,5,8
2015/2/1 10:11,2.5,9,2.5,9,3.3,10
2015/2/1 10:12,2.4,9,2.5,9,2.1,14
2015/2/1 10:13,2.5,9,2.5,9,3.7,15
2015/2/1 10:14,2.4,10,2.5,9,2.9,16
2015/2/1 10:15,2.3,9,2.4,9,2.6,16
2015/2/1 10:16,2.5,10,2.5,9,6.1,14
2015/2/1 10:17,2.7,12,2.7,12,9,15
2015/2/1 10:18,3,13,3,13,9.9,15
2015/2/1 10:19,3.2,14,3.2,14,9.2,15
2015/2/1 10:20,3.2,15,3.2,14,6.2,16
2015/2/1 10:21,3.5,15,3.5,15,9.5,15
2015/2/1 10:22,3.6,15,3.6,15,7.7,16
2015/2/1 10:23,3.8,15,3.8,15,9.5,16
2015/2/1 10:24,4.5,16,4.5,16,12.2,16
2015/2/1 10:25,5,16,5,16,10.7,16
2015/2/1 10:26,5.1,16,5.1,16,6.9,16
2015/2/1 10:27,4.9,16,5.1,16,5.8,15
2015/2/1 10:28,4.5,16,4.8,16,4.5,1
2015/2/1 10:29,4.3,1,4.5,16,5.5,2
2015/2/1 10:30,4.3,1,4.3,16,4.3,16
2015/2/1 10:31,4.1,1,4.3,16,5.2,2
2015/2/1 10:32,4.3,1,4.3,16,8.4,16
2015/2/1 10:33,4.6,1,4.7,16,14.4,15
2015/2/1 10:34,4.3,1,4.6,16,8.9,16
2015/2/1 10:35,4.2,1,4.3,16,9.3,16
2015/2/1 10:36,4.3,1,4.3,16,9.4,16
2015/2/1 10:37,4.7,1,4.7,16,11,16
2015/2/1 10:38,4.9,1,4.9,1,10.6,16
2015/2/1 10:39,5,1,5,1,8.2,1
2015/2/1 10:40,5.4,16,5.4,16,11.9,16
2015/2/1 10:41,5.5,16,5.5,16,7.7,16
2015/2/1 10:42,5.6,16,5.6,16,9.9,14
2015/2/1 10:43,5.4,16,5.6,16,9.8,1
2015/2/1 10:44,5.1,16,5.3,16,5.8,1
2015/2/1 10:45,4.9,16,5.1,16,4.9,16
2015/2/1 10:46,4.9,16,4.9,16,9.5,16
2015/2/1 10:47,4.8,16,4.9,16,10.9,16
2015/2/1 10:48,4.9,16,4.9,16,11.1,12
2015/2/1 10:49,4.8,15,4.9,16,5.8,12
2015/2/1 10:50,4.6,15,4.8,16,7.2,16
2015/2/1 10:51,4.6,15,4.6,16,7.6,14
2015/2/1 10:52,4.2,15,4.6,16,5.8,15
2015/2/1 10:53,4.4,15,4.4,16,11,1
2015/2/1 10:54,5,15,5,16,13.2,16
2015/2/1 10:55,5.4,15,5.4,15,11.1,15
2015/2/1 10:56,5.4,15,5.5,15,9.7,16
2015/2/1 10:57,5.3,15,5.4,15,10.5,16
2015/2/1 10:58,5.1,15,5.2,15,6,1
2015/2/1 10:59,5.2,16,5.2,15,10.9,16
2015/2/1 11:00,5.5,16,5.5,15,13.1,16
2015/2/1 11:01,5.6,16,5.6,16,9.4,15
2015/2/1 11:02,5.8,16,5.8,16,7.2,1
2015/2/1 11:03,5.5,16,5.8,16,5.5,3
2015/2/1 11:04,5.2,16,5.5,16,9.3,1
2015/2/1 11:05,5,16,5.1,16,10.3,1
2015/2/1 11:06,5,16,5,16,8.9,16
2015/2/1 11:07,5.2,16,5.2,16,10.7,15
2015/2/1 11:08,5.4,16,5.4,16,10.1,16
2015/2/1 11:09,5.3,16,5.5,16,7.2,2
2015/2/1 11:10,5.1,16,5.4,16,8.3,16
2015/2/1 11:11,5,16,5.1,16,8.5,16